Tyrone Middle School FL US WEATHERSTEM current weather conditions

sailwx.info

Wind from 360 at 8 knots gusting 13

Air temperature 19.3° C
Dewpoint 17.2° C

Last reported at 2019-Nov-15 22:00 UTC.
Time now 2019-Nov-15 23:05 UTC

Location: N 27°48' W 082°44'.
View on Google Maps.

See reports from other nearby stations

  
Tides and Currents Weather Stations Pressure Air Temp Water Temp Dewpoint Dewpoint Depression Visibility Wind Speed Wind Dir Waves Ship Positions
date/time (UTC)wind fromknots sea level pressurealtimeterstation pressurevisibilityair tempwater tempwave heightnotes
2019-Nov-15 22:00 360 8 gusting 13 19.3
2019-Nov-15 21:50 360 5 gusting 10 19.5
2019-Nov-15 21:40 360 5 gusting 12 19.6
2019-Nov-15 21:30 360 2 gusting 13 19.4
2019-Nov-15 21:20 360 10 gusting 10 19.6
2019-Nov-15 21:10 360 5 gusting 10 19.7
2019-Nov-15 21:00 360 5 gusting 12 19.9
2019-Nov-15 20:50 360 5 gusting 13 20.0
2019-Nov-15 20:40 360 5 gusting 12 20.1
2019-Nov-15 20:30 360 5 gusting 12 20.2
2019-Nov-15 20:20 360 4 gusting 15 20.1
2019-Nov-15 20:10 360 5 gusting 13 20.1
2019-Nov-15 20:00 360 8 gusting 12 20.2
2019-Nov-15 19:50 360 7 gusting 13 20.3
2019-Nov-15 19:40 20.4
2019-Nov-15 19:30 360 10 gusting 13 20.3
2019-Nov-15 19:20 360 5 gusting 11 20.1
2019-Nov-15 19:10 360 5 gusting 12 20.2
2019-Nov-15 19:00 360 4 gusting 12 20.3
2019-Nov-15 18:50 360 8 gusting 11 20.6
2019-Nov-15 18:40 360 5 gusting 12 20.7
2019-Nov-15 18:30 360 4 gusting 12 20.8
2019-Nov-15 18:20 360 4 gusting 10 20.9
2019-Nov-15 18:10 360 7 gusting 12 21.0
2019-Nov-15 18:00 360 2 gusting 9 21.0
2019-Nov-15 17:50 360 3 gusting 11 20.9
2019-Nov-15 17:40 360 5 gusting 9 20.8
2019-Nov-15 17:30 360 5 gusting 9 20.6
2019-Nov-15 17:20 360 4 gusting 9 20.4
2019-Nov-15 17:10 360 7 gusting 10 20.4
2019-Nov-15 17:00 360 4 gusting 10 20.6
2019-Nov-15 16:50 360 1 gusting 8 20.8
2019-Nov-15 16:40 360 3 gusting 10 20.7
2019-Nov-15 16:30 360 4 gusting 9 20.8
2019-Nov-15 16:20 360 5 gusting 9 20.4
2019-Nov-15 16:10 360 6 gusting 9 20.6
2019-Nov-15 16:00 360 6 gusting 8 20.6
2019-Nov-15 15:50 360 7 gusting 10 20.8
2019-Nov-15 15:40 360 5 gusting 8 20.9
2019-Nov-15 15:30 360 2 gusting 9 20.8
2019-Nov-15 15:20 360 8 gusting 9 21.1
2019-Nov-15 15:10 360 9 gusting 10 21.0
2019-Nov-15 15:00 360 3 gusting 6 20.9
2019-Nov-15 14:50 360 5 gusting 6 20.8
2019-Nov-15 14:40 360 3 gusting 6 20.7
2019-Nov-15 14:30 20.6
2019-Nov-15 14:20 360 4 gusting 6 20.6
2019-Nov-15 14:10 009 6 gusting 10 20.2
2019-Nov-15 14:00 360 3 gusting 6 20.1
2019-Nov-15 13:50 360 3 gusting 4 20.0
2019-Nov-15 13:40 360 0 gusting 3 20.0
2019-Nov-15 13:30 19.8
2019-Nov-15 13:20 010 6 gusting 5 19.7
2019-Nov-15 13:10 010 2 gusting 3 19.6
2019-Nov-15 13:00 19.4
2019-Nov-15 12:50 360 0 gusting 4 19.4
2019-Nov-15 12:40 009 0 gusting 5 19.3
2019-Nov-15 12:30 360 3 gusting 8 19.3
2019-Nov-15 12:20 360 4 gusting 9 19.2
2019-Nov-15 12:10 360 3 gusting 9 19.1
2019-Nov-15 12:00 360 6 gusting 11 19.1
2019-Nov-15 11:50 360 4 gusting 12 19.2
2019-Nov-15 11:40 360 8 gusting 11 19.4
2019-Nov-15 11:30 360 9 gusting 13 19.8
2019-Nov-15 11:20 360 5 gusting 13 20.8
2019-Nov-15 11:10 360 0 gusting 6 21.8
2019-Nov-15 11:00 360 1 gusting 1 21.9
2019-Nov-15 10:50 360 1 gusting 1 22.0
2019-Nov-15 10:40 21.9
2019-Nov-15 10:30 360 21.9
2019-Nov-15 10:20 21.9
2019-Nov-15 10:10 21.9
2019-Nov-15 10:00 21.9
2019-Nov-15 09:50 21.8
2019-Nov-15 09:40 21.8
2019-Nov-15 09:30 360 0 gusting 2 21.8
2019-Nov-15 09:20 360 21.8
2019-Nov-15 09:10 360 1 gusting 2 21.8
2019-Nov-15 09:00 360 21.8
2019-Nov-15 08:50 360 0 gusting 2 21.8
2019-Nov-15 08:40 360 0 gusting 5 21.9
2019-Nov-15 08:30 360 0 gusting 1 21.9
2019-Nov-15 08:20 21.9
2019-Nov-15 08:10 360 1 gusting 3 21.8
2019-Nov-15 08:00 360 2 gusting 4 21.8
2019-Nov-15 07:50 360 1 gusting 5 21.8
2019-Nov-15 07:40 21.9
2019-Nov-15 07:30 360 2 gusting 4 21.9
2019-Nov-15 07:20 360 3 gusting 5 21.9
2019-Nov-15 07:10 360 3 gusting 5 21.9
2019-Nov-15 07:00 360 2 gusting 4 22.0
2019-Nov-15 06:40 360 5 gusting 5 22.1
2019-Nov-15 06:30 360 3 gusting 5 22.1
2019-Nov-15 06:10 360 3 gusting 4 22.1
2019-Nov-15 06:00 360 1 gusting 3 22.1
2019-Nov-15 05:50 360 0 gusting 5 22.2
2019-Nov-15 05:40 360 0 gusting 5 22.2
2019-Nov-15 05:30 360 2 gusting 6 22.2
2019-Nov-15 05:20 360 3 gusting 6 22.2
2019-Nov-15 05:10 360 3 gusting 7 22.2
2019-Nov-15 05:00 360 1 gusting 7 22.2
2019-Nov-15 04:50 360 1 gusting 5 22.2
2019-Nov-15 04:40 360 3 gusting 7 22.2
2019-Nov-15 04:30 360 3 gusting 9 22.2
2019-Nov-15 04:20 360 4 gusting 7 22.2
2019-Nov-15 04:10 360 4 gusting 6 22.1
2019-Nov-15 04:00 360 2 gusting 4 22.1
2019-Nov-15 03:50 360 1 gusting 4 22.1
2019-Nov-15 03:40 360 1 gusting 5 22.2
2019-Nov-15 03:30 360 3 gusting 5 22.2
2019-Nov-15 03:20 360 1 gusting 5 22.2
2019-Nov-15 03:00 360 4 gusting 7 22.3
2019-Nov-15 02:50 360 5 gusting 9 22.3
2019-Nov-15 02:40 360 7 gusting 9 22.2
2019-Nov-15 02:30 360 5 gusting 9 22.2
2019-Nov-15 02:20 360 5 gusting 11 22.2
2019-Nov-15 02:10 360 5 gusting 9 22.2
2019-Nov-15 02:00 360 2 gusting 8 22.2
2019-Nov-15 01:50 360 5 gusting 7 22.2
2019-Nov-15 01:40 360 1 gusting 5 22.3
2019-Nov-15 01:30 360 4 gusting 5 22.3
2019-Nov-15 01:20 360 2 gusting 5 22.4
2019-Nov-15 01:10 360 2 gusting 6 22.5
2019-Nov-15 01:00 360 4 gusting 7 22.6
2019-Nov-15 00:50 360 5 gusting 7 22.7
2019-Nov-15 00:40 360 3 gusting 5 22.8
2019-Nov-15 00:30 360 5 gusting 6 22.9
2019-Nov-15 00:20 360 1 gusting 7 22.9
2019-Nov-15 00:10 360 0 gusting 5 22.8
2019-Nov-15 00:00 360 2 gusting 5 22.8
2019-Nov-14 23:50 360 2 gusting 5 22.8
2019-Nov-14 23:40 360 0 gusting 4 22.8
2019-Nov-14 23:30 360 0 gusting 3 22.8
2019-Nov-14 23:20 22.9
2019-Nov-14 23:10 360 0 gusting 3 22.9
2019-Nov-14 23:00 360 2 gusting 5 23.0
2019-Nov-14 22:50 360 0 gusting 3 23.1
2019-Nov-14 22:40 360 1 gusting 2 23.2
2019-Nov-14 22:30 23.3
2019-Nov-14 22:20 360 1 gusting 5 23.4
2019-Nov-14 22:10 360 2 gusting 4 23.4
2019-Nov-14 22:00 360 3 gusting 6 23.5
2019-Nov-14 21:50 360 3 gusting 7 23.6
2019-Nov-14 21:40 360 5 gusting 7 23.4
2019-Nov-14 21:30 360 4 gusting 7 23.4
2019-Nov-14 21:20 360 7 gusting 8 23.5
2019-Nov-14 21:10 360 3 gusting 5 23.6
2019-Nov-14 21:00 360 0 gusting 6 23.5
2019-Nov-14 20:50 360 3 gusting 6 23.7
2019-Nov-14 20:40 23.8
2019-Nov-14 20:30 360 3 gusting 6 23.7
2019-Nov-14 20:20 360 4 gusting 10 23.8
2019-Nov-14 20:10 360 3 gusting 5 23.9
2019-Nov-14 20:00 360 2 gusting 8 23.8
2019-Nov-14 19:50 360 2 gusting 6 23.9
2019-Nov-14 19:40 360 7 gusting 9 23.9
2019-Nov-14 19:30 360 2 gusting 8 23.9
2019-Nov-14 19:20 360 3 gusting 8 23.8
2019-Nov-14 19:10 360 3 gusting 8 23.8
2019-Nov-14 19:00 360 2 gusting 7 23.8
2019-Nov-14 18:50 360 3 gusting 7 23.9
2019-Nov-14 18:40 012 1 gusting 10 23.9
2019-Nov-14 18:30 360 4 gusting 10 23.8
2019-Nov-14 18:20 360 4 gusting 12 23.7
2019-Nov-14 18:10 360 4 gusting 11 23.7
2019-Nov-14 18:00 360 2 gusting 7 23.6
2019-Nov-14 17:50 360 3 gusting 10 23.4
2019-Nov-14 17:40 360 3 gusting 10 23.3
2019-Nov-14 17:30 360 6 gusting 11 23.3
2019-Nov-14 17:20 360 4 gusting 13 23.4
2019-Nov-14 17:10 360 4 gusting 10 23.2
2019-Nov-14 17:00 360 6 gusting 11 22.9
2019-Nov-14 16:50 360 5 gusting 9 22.7
2019-Nov-14 16:40 360 6 gusting 12 22.3
2019-Nov-14 16:30 360 4 gusting 9 22.2
2019-Nov-14 16:20 360 2 gusting 9 22.1
2019-Nov-14 16:10 360 2 gusting 9 21.9
2019-Nov-14 16:00 360 2 gusting 9 21.7
2019-Nov-14 15:50 360 2 gusting 11 21.4
2019-Nov-14 15:40 360 4 gusting 10 21.2
2019-Nov-14 15:30 360 4 gusting 9 21.1
2019-Nov-14 15:20 360 2 gusting 10 20.9
2019-Nov-14 15:10 360 5 gusting 9 20.8
2019-Nov-14 15:00 360 2 gusting 8 20.6
2019-Nov-14 14:50 360 3 gusting 7 20.3
2019-Nov-14 14:40 360 1 gusting 8 20.2
2019-Nov-14 14:30 360 0 gusting 8 20.0
2019-Nov-14 14:20 360 4 gusting 8 19.8
2019-Nov-14 14:10 360 1 gusting 8 19.7
2019-Nov-14 14:00 009 0 gusting 4 19.8
2019-Nov-14 13:50 360 2 gusting 7 19.8
2019-Nov-14 13:40 360 4 gusting 7 19.7
2019-Nov-14 13:30 360 0 gusting 5 19.5
2019-Nov-14 13:20 360 3 gusting 7 19.6
2019-Nov-14 13:10 360 0 gusting 6 19.4
2019-Nov-14 13:00 360 0 gusting 8 19.3
2019-Nov-14 12:50 360 2 gusting 7 19.2
2019-Nov-14 12:40 360 3 gusting 5 19.1
2019-Nov-14 12:30 360 4 gusting 6 19.1
2019-Nov-14 12:20 009 1 gusting 4 19.0
2019-Nov-14 12:10 360 2 gusting 5 19.0
2019-Nov-14 12:00 360 0 gusting 5 18.9
2019-Nov-14 11:50 18.8
2019-Nov-14 11:40 012 0 gusting 5 18.6
2019-Nov-14 11:30 360 1 gusting 3 18.4
2019-Nov-14 11:20 360 1 gusting 4 18.2
2019-Nov-14 11:10 360 0 gusting 4 18.2
2019-Nov-14 11:00 360 0 gusting 4 18.3
2019-Nov-14 10:50 360 0 gusting 5 18.2
2019-Nov-14 10:40 013 2 gusting 5 18.2
2019-Nov-14 10:30 360 3 gusting 5 18.1
2019-Nov-14 10:20 360 1 gusting 4 18.1
2019-Nov-14 10:10 025 0 gusting 4 18.2
2019-Nov-14 10:00 360 4 gusting 6 18.2
2019-Nov-14 09:50 360 0 gusting 7 18.3
2019-Nov-14 09:40 360 2 gusting 5 18.4
2019-Nov-14 09:30 360 4 gusting 5 18.4
2019-Nov-14 09:20 360 3 gusting 9 18.4
2019-Nov-14 09:10 360 1 gusting 7 18.3
2019-Nov-14 09:00 360 6 gusting 8 18.3
2019-Nov-14 08:50 360 1 gusting 10 18.2
2019-Nov-14 08:40 016 2 gusting 7 18.2
2019-Nov-14 08:30 013 2 gusting 7 18.2
2019-Nov-14 08:20 360 3 gusting 7 18.1
2019-Nov-14 08:10 360 3 gusting 9 18.1
2019-Nov-14 08:00 018 1 gusting 10 18.1
2019-Nov-14 07:50 360 3 gusting 9 18.1
2019-Nov-14 07:40 026 0 gusting 8 18.0
2019-Nov-14 07:30 360 7 gusting 8 17.9
2019-Nov-14 07:20 17.9
2019-Nov-14 07:10 360 1 gusting 6 17.9
2019-Nov-14 07:00 360 2 gusting 8 17.8
2019-Nov-14 06:50 360 2 gusting 6 17.8
2019-Nov-14 06:40 360 0 gusting 8 17.8
2019-Nov-14 06:30 360 0 gusting 8 17.8
2019-Nov-14 06:20 360 2 gusting 7 17.7
2019-Nov-14 06:10 019 3 gusting 9 17.6
2019-Nov-14 06:00 360 2 gusting 8 17.6
2019-Nov-14 05:40 009 2 gusting 8 17.6
2019-Nov-14 05:30 360 4 gusting 7 17.6
2019-Nov-14 05:10 360 4 gusting 9 17.6
2019-Nov-14 05:00 360 2 gusting 7 17.6
2019-Nov-14 04:40 360 8 gusting 10 17.7
2019-Nov-14 04:30 360 1 gusting 7 17.7
2019-Nov-14 04:20 023 0 gusting 9 17.7
2019-Nov-14 04:10 360 4 gusting 8 17.7
2019-Nov-14 04:00 360 0 gusting 9 17.6
2019-Nov-14 03:50 360 5 gusting 11 17.6
2019-Nov-14 03:40 360 3 gusting 9 17.6
2019-Nov-14 03:30 360 8 gusting 9 17.6
2019-Nov-14 03:20 360 4 gusting 8 17.6
2019-Nov-14 03:10 360 2 gusting 8 17.6
2019-Nov-14 03:00 360 2 gusting 9 17.7
2019-Nov-14 02:40 360 1 gusting 12 17.7
2019-Nov-14 02:30 360 3 gusting 7 17.7
2019-Nov-14 02:20 026 1 gusting 8 17.7
2019-Nov-14 02:10 360 4 gusting 11 17.7
2019-Nov-14 02:00 013 3 gusting 8 17.7
2019-Nov-14 01:50 026 4 gusting 8 17.8
2019-Nov-14 01:40 17.8
2019-Nov-14 01:30 360 3 gusting 10 17.9
2019-Nov-14 01:20 360 3 gusting 9 17.9
2019-Nov-14 01:10 360 3 gusting 11 18.1
2019-Nov-14 01:00 360 3 gusting 13 18.2
2019-Nov-14 00:50 360 8 gusting 12 18.2
2019-Nov-14 00:40 360 2 gusting 9 18.2
2019-Nov-14 00:30 360 4 gusting 10 18.3
2019-Nov-14 00:20 022 8 gusting 13 18.3
2019-Nov-14 00:10 360 3 gusting 13 18.4
2019-Nov-14 00:00 009 1 gusting 13 18.5
2019-Nov-13 23:50 360 6 gusting 15 18.6
2019-Nov-13 23:40 013 11 gusting 14 18.7
2019-Nov-13 23:30 360 4 gusting 12 18.9
2019-Nov-13 23:20 360 4 gusting 19 18.9
2019-Nov-13 23:10 360 6 gusting 13 18.9
2019-Nov-13 23:00 360 2 gusting 13 19.0